Wind_Speed
10 5 2 2 1 3 3 3 2 9 8 1 12 2 4 6 2 1 16 20 17 17 16 14 12 10 8 7 8 9 9 8 10 11 11 11 11 11 11 11 11 10 10 9 8 8 7 6 6
8 2 4 2 3 3 3 3 11 6 7 14 12 6 4 5 4 11 16 16 16 17 16 14 11 9 8 8 8 8 8 10 9 9 10 10 9 9 9 8 7 8 8 7 6 6 5 5 5
3 3 2 3 3 3 3 6 10 13 8 6 6 9 4 4 9 11 20 16 16 17 17 14 12 10 9 9 9 9 9 9 9 8 8 8 7 6 6 6 6 6 6 6 6 6 5 5 4
2 2 5 4 5 2 2 11 15 14 9 6 11 9 7 6 7 15 20 18 19 19 16 14 13 11 10 11 10 9 9 8 8 7 7 6 7 6 6 6 7 7 7 6 6 6 6 6 5
3 4 4 4 3 3 2 9 17 6 6 7 2 5 5 4 8 21 19 19 20 19 17 16 14 13 12 10 10 9 8 8 7 6 6 5 5 8 9 7 6 6 4 6 6 7 7 8 7
3 3 4 3 2 1 4 10 11 6 6 6 7 8 4 9 18 18 19 20 20 21 19 17 15 12 10 8 7 8 8 8 8 6 6 6 9 8 8 6 6 5 7 7 7 7 8 8 9
6 3 3 4 4 3 4 8 5 8 7 4 13 6 8 15 17 19 21 21 21 19 18 17 14 12 10 9 8 9 8 7 6 5 4 6 7 6 6 6 5 6 7 8 8 8 8 8 8
5 4 3 2 5 3 6 3 6 5 4 11 6 6 8 19 20 21 21 21 20 18 17 15 13 12 11 11 9 8 6 4 3 3 4 5 5 4 4 4 5 6 7 7 8 8 7 7 7
4 4 2 3 6 3 9 5 4 5 10 4 5 5 11 27 24 22 21 20 19 17 15 14 13 12 11 10 9 6 3 3 3 6 7 4 4 4 3 5 6 5 5 6 7 7 8 7 7
5 3 2 2 3 4 13 7 10 6 8 4 8 9 22 27 25 24 23 21 19 17 16 15 14 12 12 10 7 3 2 2 4 6 5 4 4 5 5 5 4 4 5 6 7 8 8 7 8
2 2 1 2 5 7 13 9 6 9 5 8 15 25 29 28 26 23 21 20 18 17 15 14 13 13 12 8 4 3 3 4 6 6 4 5 5 4 3 3 3 4 6 6 7 7 7 7 8
3 1 1 2 3 9 12 12 6 9 2 6 12 26 31 29 26 23 21 20 19 16 15 13 13 13 11 8 4 4 6 7 7 6 5 4 3 3 3 4 5 4 6 6 6 6 7 7 8
2 0 2 4 7 8 13 7 6 7 4 9 19 29 30 27 23 20 21 20 18 16 14 13 12 12 10 7 7 7 8 7 6 6 4 3 3 3 5 5 5 5 6 6 7 7 6 5 6
1 3 7 5 8 8 8 5 4 5 13 17 24 26 25 24 24 22 21 20 20 18 16 14 13 12 10 9 9 10 10 6 6 4 3 3 3 4 5 5 6 7 7 6 5 6 5 6 7
1 3 1 3 6 3 7 3 6 15 17 20 23 23 23 24 24 21 19 20 22 19 17 16 13 13 12 11 11 11 10 8 5 3 3 3 4 5 5 6 6 7 7 6 5 5 6 5 8
2 2 2 1 8 2 4 9 7 19 22 22 24 28 30 28 26 25 22 21 24 22 20 17 17 15 13 13 13 12 11 8 6 4 4 4 4 5 6 6 6 7 8 7 5 6 7 8 10
5 2 1 1 7 4 6 8 3 18 21 22 23 29 31 31 30 28 27 25 27 23 20 20 18 16 16 17 16 14 11 9 7 6 5 4 4 5 5 6 6 8 8 7 7 6 6 9 12
1 1 1 4 4 7 10 15 4 18 21 22 23 26 31 32 34 30 30 27 27 23 19 20 19 19 19 20 18 16 13 11 8 7 5 4 4 5 5 5 6 7 7 6 6 6 9 9 11
2 2 5 7 6 7 15 18 14 19 21 20 25 27 32 35 33 31 32 30 28 25 23 24 23 24 24 24 21 18 15 13 10 8 7 6 4 4 4 4 5 6 7 6 7 6 7 11 12
4 6 12 8 1 8 5 12 9 17 29 31 28 26 28 29 32 35 36 35 32 29 27 26 27 26 25 22 19 17 17 15 12 10 8 7 6 4 3 3 4 5 4 4 5 4 7 9 13
3 5 7 9 4 4 3 6 7 8 18 22 24 29 28 38 38 38 40 39 35 34 31 30 30 29 26 23 22 21 19 17 15 12 10 7 6 5 4 2 3 3 3 4 3 4 6 7 11
8 5 9 7 6 8 2 10 3 9 16 20 24 30 33 37 41 41 44 42 41 36 32 31 32 31 29 26 25 23 19 18 15 12 10 9 6 5 4 3 2 2 2 3 3 5 7 8 10
5 1 3 7 9 3 10 7 3 1 11 18 27 35 40 37 40 43 47 43 40 34 35 34 34 34 32 29 27 24 21 18 17 14 12 9 7 6 4 2 3 3 2 2 3 4 5 6 8
1 2 10 1 3 10 15 11 11 7 9 8 28 35 37 39 41 44 45 44 41 40 38 38 38 36 34 32 29 27 24 23 21 18 15 12 10 7 4 2 2 3 4 4 4 4 4 4 4
6 7 5 3 2 5 5 7 13 10 15 18 15 27 31 33 35 38 43 47 46 44 42 42 41 39 37 35 32 30 28 25 21 19 16 14 11 9 7 6 5 5 6 6 6 5 4 5 6
5 6 4 6 5 6 9 8 5 8 16 17 15 18 19 28 37 45 53 52 50 47 45 43 43 41 40 37 34 33 31 29 26 23 20 17 14 12 12 9 8 6 7 6 6 6 7 7 7
4 6 3 7 11 10 8 10 10 11 10 11 10 10 19 25 32 38 43 48 49 50 47 41 42 41 41 39 36 36 34 33 31 27 24 21 18 18 16 13 12 9 8 7 7 7 8 9 9
5 7 2 1 5 10 5 6 7 5 9 12 12 15 16 18 24 27 31 39 47 50 45 41 40 40 40 40 39 37 36 35 33 29 29 26 22 22 20 18 16 13 11 10 9 9 10 11 12
4 4 3 3 4 6 10 6 6 12 13 11 16 22 20 19 19 26 29 32 40 42 45 43 42 39 40 41 40 39 38 37 34 33 31 30 27 25 24 20 19 18 14 13 11 12 13 13 14
11 13 11 6 7 6 5 15 10 16 13 18 24 26 20 17 17 23 29 26 32 39 42 43 42 42 39 40 41 41 39 37 37 36 35 33 28 27 27 25 26 22 17 16 13 16 18 16 15
Wind_Direction
342 342 104 95 141 75 77 97 100 125 148 149 139 154 124 62 7 55 135 140 146 155 153 150 145 141 135 121 119 116 110 106 105 107 107 104 100 97 96 96 97 95 86 79 79 80 83 82 87
353 27 122 99 84 107 107 163 137 121 121 124 110 121 80 85 70 128 126 140 151 155 152 152 147 141 134 128 121 115 112 107 105 102 102 101 95 92 90 87 82 77 82 78 71 71 73 76 69
15 118 132 81 90 91 138 169 131 118 114 140 117 73 66 66 125 138 135 149 159 153 154 152 148 149 143 132 127 121 113 109 110 110 105 101 96 91 86 76 74 80 83 75 60 54 53 57 63
98 97 61 63 61 64 329 148 140 127 93 76 110 78 79 120 154 143 144 157 160 152 153 150 154 154 146 140 134 128 121 120 114 112 110 108 107 95 84 77 79 79 79 77 68 58 55 55 59
88 77 64 76 42 345 60 150 149 123 110 103 100 117 80 65 136 146 150 153 159 151 154 154 155 155 155 144 135 134 121 110 109 107 105 108 116 112 96 79 74 71 80 70 64 58 58 64 68
74 79 77 77 30 82 108 154 139 102 109 121 108 110 103 139 142 150 152 155 157 157 160 154 153 153 143 135 136 118 114 113 106 100 102 106 98 92 89 73 69 68 78 71 64 62 63 65 73
93 73 93 109 125 135 143 149 153 123 128 119 138 106 136 152 157 156 160 162 160 163 162 157 153 145 142 139 133 123 119 109 102 97 105 109 96 80 65 55 61 66 73 71 71 66 64 67 70
68 85 96 99 170 177 158 108 130 133 115 133 136 158 167 170 162 161 159 162 164 164 164 160 155 150 150 147 135 130 124 110 88 104 128 111 93 82 75 68 70 74 69 66 67 67 68 67 67
60 66 80 141 171 176 166 153 153 133 132 128 162 159 172 163 164 163 164 166 167 170 169 166 159 157 157 153 148 147 138 120 105 123 128 116 105 91 81 79 76 64 55 57 64 68 67 62 62
57 84 170 216 204 198 178 173 159 161 152 116 94 139 159 161 165 165 170 168 172 174 172 165 165 166 166 165 159 154 171 156 143 137 131 127 107 100 87 78 73 72 65 60 59 60 67 68 72
47 87 236 210 214 186 167 153 168 141 207 193 164 155 160 165 167 170 174 176 174 179 173 170 172 173 174 172 174 179 187 159 146 137 133 116 107 91 81 73 66 62 68 63 63 69 75 78 83
121 55 291 313 177 161 170 152 161 191 198 223 193 169 166 169 171 174 177 184 184 183 179 181 181 179 183 179 193 186 171 160 153 138 128 105 93 91 74 61 62 67 73 78 85 86 82 83 84
85 169 307 257 190 169 148 174 166 192 212 186 171 167 171 171 175 178 184 184 190 188 190 194 187 182 187 186 188 175 164 151 143 132 121 102 61 56 59 50 62 76 82 86 92 102 109 104 105
253 263 284 227 189 169 157 154 169 160 159 159 164 167 173 176 178 187 194 195 194 192 195 196 191 189 189 182 183 175 156 142 138 117 104 78 63 51 55 70 82 87 86 86 93 110 127 138 132
292 299 338 186 188 189 132 182 220 165 166 163 169 171 182 190 194 197 207 203 197 197 203 205 205 187 187 180 182 175 150 144 139 136 98 75 70 77 85 86 90 95 94 91 101 127 141 149 152
30 61 334 90 168 227 208 258 171 174 173 177 178 185 194 200 200 199 206 210 199 203 208 210 194 189 187 182 179 168 155 156 150 132 100 97 98 95 97 102 98 86 75 79 101 131 157 168 168
17 262 255 181 205 149 212 268 157 183 185 190 190 194 198 201 204 206 207 211 205 209 214 202 194 194 188 181 176 168 166 162 152 134 127 120 100 102 105 105 90 75 65 66 87 125 161 167 166
294 331 271 268 170 199 205 252 173 191 198 199 201 202 203 207 209 209 211 211 205 214 215 203 199 193 189 181 177 174 170 166 159 144 137 123 108 109 101 84 75 75 64 63 89 121 140 159 163
155 256 280 271 240 214 239 250 250 198 209 205 207 207 211 214 213 213 211 206 208 214 213 208 202 193 190 184 180 178 177 170 166 158 150 138 122 109 109 104 86 71 66 68 92 114 142 159 165
231 280 279 293 189 211 233 245 255 207 217 210 208 208 211 215 216 212 207 207 211 215 212 209 204 196 192 190 185 184 178 176 175 167 160 145 130 124 123 106 92 79 68 80 104 129 165 173 173
234 243 275 279 312 243 277 249 224 230 232 225 223 218 216 218 216 211 208 212 210 213 210 207 203 199 194 190 188 187 187 189 182 174 166 159 145 139 126 129 117 116 111 103 129 179 187 194 199
277 225 258 283 306 292 241 286 246 227 231 224 224 221 220 216 220 216 211 212 215 211 208 206 202 200 196 195 196 198 196 192 183 178 176 172 161 146 153 166 160 142 131 140 167 185 204 220 234
253 171 259 281 275 282 243 264 222 223 242 238 231 229 226 217 216 216 220 216 215 211 212 205 202 202 200 200 201 200 200 197 194 191 188 184 181 183 172 161 179 191 203 222 197 191 201 220 230
59 331 318 336 245 259 254 243 259 227 225 244 233 233 230 219 217 221 228 224 217 210 207 206 203 204 204 204 204 203 201 202 201 201 199 196 198 203 197 211 225 213 220 235 236 237 240 242 247
246 282 302 282 225 274 359 254 264 252 238 238 258 234 234 223 216 216 218 219 214 212 209 206 205 207 208 207 209 205 205 210 212 212 211 209 212 216 219 225 237 241 226 229 241 246 254 262 262
187 185 210 271 269 286 318 269 235 252 263 256 253 256 239 221 216 216 220 215 214 210 209 207 207 208 210 210 212 211 211 214 216 218 219 221 222 228 229 234 242 244 241 236 243 251 258 261 260
146 203 267 265 264 280 245 268 290 280 275 268 251 240 236 229 221 220 214 214 217 210 210 208 210 212 213 214 214 215 215 217 220 223 224 227 230 234 238 240 245 248 243 246 248 258 255 258 259
206 151 193 155 291 285 263 277 257 294 266 266 269 251 247 240 229 220 212 212 221 213 212 210 214 218 217 218 218 220 220 221 225 228 231 232 235 239 241 244 246 250 250 245 254 259 260 256 259
179 212 199 256 205 270 294 268 227 255 258 271 275 270 263 250 230 213 215 218 226 220 216 214 216 218 221 222 223 224 225 227 230 234 235 235 236 241 247 251 257 252 255 260 255 260 257 253 256
227 240 234 231 233 234 274 271 244 253 255 268 267 275 270 242 227 223 220 218 226 225 219 220 222 221 225 226 227 229 231 233 235 239 239 238 239 242 245 248 251 249 253 261 266 267 258 252 250
Height
1523 1522 1521 1522 1527 1529 1547 1548 1546 1548 1551 1553 1555 1558 1559 1563 1564 1568 1570 1572 1575 1578 1580 1582 1583 1585 1585 1586 1585 1585 1585 1585 1585 1585 1584 1585 1585 1585 1584 1584 1583 1583 1583 1582 1582 1583 1583 1583 1583
1522 1521 1522 1522 1530 1539 1547 1544 1545 1547 1550 1553 1555 1558 1560 1565 1567 1569 1572 1574 1577 1578 1581 1582 1584 1585 1586 1586 1586 1587 1586 1586 1586 1586 1586 1586 1586 1585 1585 1585 1584 1584 1584 1583 1583 1583 1584 1583 1583
1521 1521 1522 1525 1537 1542 1543 1542 1545 1549 1551 1553 1557 1559 1563 1568 1568 1570 1573 1576 1578 1579 1580 1582 1584 1585 1586 1587 1587 1587 1586 1588 1588 1587 1588 1587 1587 1587 1586 1586 1586 1585 1585 1584 1584 1584 1584 1583 1583
1520 1522 1524 1531 1544 1545 1543 1542 1545 1548 1552 1553 1556 1561 1566 1569 1570 1571 1573 1576 1577 1579 1581 1582 1583 1585 1586 1587 1587 1587 1587 1587 1588 1588 1588 1588 1587 1587 1587 1587 1587 1587 1586 1585 1585 1584 1584 1583 1583
1520 1521 1530 1541 1547 1545 1544 1544 1545 1547 1551 1554 1557 1563 1568 1569 1570 1572 1573 1575 1578 1580 1582 1582 1584 1585 1586 1587 1587 1587 1587 1588 1589 1589 1589 1589 1589 1587 1588 1587 1588 1587 1588 1586 1586 1585 1585 1584 1585
1520 1523 1535 1544 1548 1545 1545 1546 1546 1549 1552 1554 1556 1562 1568 1569 1570 1571 1573 1575 1578 1579 1580 1581 1582 1585 1586 1588 1589 1588 1589 1589 1589 1589 1590 1589 1589 1589 1589 1588 1588 1588 1588 1588 1587 1586 1586 1586 1586
1521 1526 1543 1546 1548 1545 1544 1547 1547 1549 1553 1555 1556 1562 1568 1569 1570 1571 1574 1576 1578 1579 1580 1582 1583 1585 1586 1588 1589 1589 1590 1591 1590 1590 1590 1590 1590 1590 1590 1589 1589 1589 1589 1589 1588 1588 1587 1586 1587
1523 1528 1541 1544 1546 1544 1544 1546 1548 1549 1553 1556 1557 1559 1565 1566 1570 1572 1575 1577 1579 1579 1581 1583 1584 1585 1586 1588 1589 1590 1591 1591 1591 1590 1590 1591 1591 1591 1590 1590 1589 1589 1589 1589 1588 1588 1587 1587 1587
1526 1534 1542 1542 1544 1541 1543 1544 1548 1549 1552 1555 1555 1556 1557 1562 1568 1572 1575 1578 1579 1580 1582 1583 1584 1586 1587 1588 1589 1590 1590 1591 1591 1590 1590 1591 1591 1591 1591 1590 1591 1590 1590 1590 1589 1589 1588 1588 1588
1529 1537 1540 1539 1538 1538 1542 1543 1546 1549 1551 1555 1555 1556 1557 1561 1567 1571 1574 1577 1579 1580 1580 1583 1584 1585 1587 1588 1589 1590 1591 1591 1591 1591 1591 1591 1591 1591 1592 1591 1590 1590 1590 1590 1589 1589 1590 1590 1589
1535 1538 1538 1538 1538 1538 1541 1543 1545 1546 1549 1550 1552 1555 1557 1560 1565 1570 1573 1576 1578 1579 1581 1582 1584 1585 1587 1588 1589 1589 1590 1591 1591 1592 1592 1591 1591 1591 1591 1591 1591 1590 1589 1590 1590 1589 1589 1590 1590
1537 1538 1538 1537 1538 1539 1540 1542 1545 1546 1546 1548 1550 1554 1556 1560 1564 1567 1570 1574 1577 1579 1581 1583 1583 1584 1586 1587 1588 1588 1589 1590 1590 1591 1592 1592 1591 1590 1590 1590 1589 1589 1589 1589 1589 1589 1589 1590 1590
1537 1539 1539 1537 1537 1537 1539 1542 1543 1546 1546 1547 1549 1554 1558 1560 1564 1568 1571 1574 1576 1578 1580 1582 1583 1584 1585 1587 1587 1588 1588 1589 1590 1591 1592 1592 1592 1591 1590 1589 1589 1589 1589 1589 1589 1589 1588 1590 1591
1538 1538 1537 1536 1536 1537 1539 1543 1544 1546 1546 1547 1550 1553 1557 1559 1562 1565 1567 1570 1574 1577 1579 1582 1583 1584 1585 1586 1587 1587 1587 1589 1591 1592 1592 1592 1591 1591 1590 1589 1589 1589 1590 1590 1589 1589 1589 1590 1591
1537 1537 1536 1537 1537 1537 1539 1543 1541 1543 1546 1548 1550 1553 1556 1558 1560 1563 1567 1569 1572 1576 1578 1580 1582 1583 1583 1585 1586 1587 1587 1588 1590 1592 1592 1592 1592 1591 1591 1590 1589 1589 1589 1590 1590 1590 1590 1591 1592
1537 1538 1538 1537 1538 1539 1540 1535 1538 1541 1544 1547 1549 1550 1552 1556 1559 1561 1565 1569 1570 1573 1575 1576 1578 1580 1582 1583 1584 1587 1588 1589 1589 1591 1592 1592 1591 1591 1590 1589 1589 1589 1589 1590 1590 1590 1590 1591 1592
1542 1541 1542 1537 1538 1539 1540 1534 1537 1541 1544 1547 1548 1548 1550 1553 1557 1558 1562 1564 1567 1569 1572 1573 1576 1577 1579 1581 1583 1585 1587 1588 1589 1590 1590 1591 1591 1590 1590 1589 1587 1587 1588 1588 1589 1589 1590 1591 1593
1545 1544 1543 1540 1537 1537 1538 1534 1537 1540 1543 1544 1546 1547 1547 1548 1551 1555 1558 1561 1564 1566 1569 1572 1573 1576 1578 1580 1582 1584 1585 1586 1588 1588 1590 1590 1590 1589 1589 1589 1588 1587 1587 1588 1589 1589 1590 1591 1592
1541 1544 1545 1537 1534 1535 1532 1530 1526 1536 1539 1539 1540 1542 1544 1546 1550 1553 1554 1557 1559 1562 1566 1568 1570 1571 1574 1576 1578 1581 1584 1585 1586 1587 1588 1589 1589 1589 1588 1587 1588 1587 1586 1587 1588 1589 1590 1591 1592
1541 1541 1536 1533 1533 1534 1531 1528 1528 1531 1527 1529 1532 1537 1539 1543 1544 1546 1549 1549 1551 1554 1559 1564 1567 1568 1572 1575 1578 1580 1581 1583 1585 1586 1587 1587 1587 1588 1588 1587 1587 1587 1587 1587 1587 1588 1589 1590 1592
1539 1539 1536 1537 1532 1531 1531 1526 1526 1524 1526 1528 1528 1530 1533 1533 1536 1539 1543 1545 1547 1549 1552 1558 1563 1566 1569 1572 1574 1577 1579 1582 1583 1584 1585 1587 1587 1587 1587 1588 1587 1587 1587 1587 1588 1589 1590 1590 1591
1540 1531 1532 1534 1535 1533 1528 1521 1522 1520 1516 1520 1522 1523 1522 1524 1528 1531 1533 1538 1540 1544 1549 1554 1559 1563 1566 1568 1571 1574 1577 1579 1581 1582 1583 1584 1586 1586 1587 1587 1586 1586 1586 1586 1587 1587 1588 1589 1590
1532 1531 1532 1530 1530 1533 1525 1529 1510 1521 1517 1511 1511 1510 1510 1514 1518 1521 1524 1530 1536 1542 1546 1550 1554 1559 1561 1563 1567 1571 1575 1577 1578 1579 1581 1583 1584 1585 1586 1586 1586 1585 1585 1586 1587 1586 1587 1587 1587
1528 1529 1528 1533 1532 1530 1515 1520 1505 1509 1502 1498 1496 1496 1499 1504 1507 1512 1518 1525 1531 1535 1538 1542 1547 1551 1556 1559 1562 1566 1570 1573 1574 1576 1578 1580 1581 1583 1583 1584 1585 1584 1585 1586 1584 1584 1585 1586 1587
1528 1534 1544 1537 1538 1524 1514 1518 1501 1492 1490 1487 1486 1488 1489 1499 1503 1506 1509 1513 1521 1526 1529 1534 1539 1544 1549 1553 1557 1561 1565 1569 1571 1573 1574 1575 1577 1578 1580 1581 1583 1584 1584 1583 1584 1585 1584 1584 1584
1527 1530 1541 1544 1531 1520 1514 1514 1496 1486 1485 1484 1483 1483 1485 1488 1490 1490 1490 1497 1508 1514 1520 1525 1531 1536 1542 1546 1551 1556 1560 1563 1566 1568 1570 1571 1573 1575 1576 1578 1580 1580 1581 1581 1582 1581 1581 1581 1581
1527 1530 1523 1530 1523 1530 1508 1498 1491 1481 1481 1482 1480 1478 1478 1479 1482 1483 1487 1492 1499 1506 1512 1517 1523 1530 1536 1539 1544 1549 1552 1555 1559 1564 1566 1568 1570 1571 1573 1574 1575 1576 1576 1577 1577 1578 1578 1579 1578
1515 1517 1526 1532 1533 1524 1505 1506 1494 1484 1481 1476 1475 1474 1474 1475 1478 1483 1485 1487 1491 1498 1506 1513 1518 1522 1528 1533 1537 1541 1545 1549 1553 1557 1560 1563 1566 1566 1567 1568 1570 1571 1572 1571 1572 1573 1573 1574 1575
1517 1516 1518 1518 1521 1521 1512 1497 1484 1479 1476 1476 1471 1468 1468 1468 1471 1475 1478 1483 1488 1495 1502 1506 1512 1517 1521 1525 1530 1534 1538 1543 1547 1550 1553 1555 1558 1560 1563 1565 1567 1567 1567 1569 1568 1569 1567 1567 1569
1498 1501 1506 1517 1514 1516 1513 1486 1476 1474 1473 1471 1467 1463 1462 1463 1465 1469 1472 1477 1484 1488 1494 1500 1506 1510 1514 1518 1523 1527 1533 1537 1540 1542 1545 1549 1553 1554 1556 1557 1558 1561 1562 1563 1565 1564 1563 1562 1562